AVA9255 SKAR-SKRG

Flight info

Callsign AVA9255
Flight time 0h 22m
Altitude 17000
Route PEI1F PEI W3 ISVON ISVON4A
Aircraft A320/M-SDE3FGHIRWY/LB1

Departure

Time 2026-05-07 22:21
Airport El Eden Airport (SKAR)

Arrival

Time 2026-05-07 22:43
Airport Jose Maria Córdova International Airport (SKRG)
Time Latitude Longitude Altitude Speed Heading
2026-05-07 21:59 4.45284 -75.76751 4010 ft 0 kts 283°
2026-05-07 22:11 4.45280 -75.76736 4011 ft 2 kts 283°
2026-05-07 22:11 4.45277 -75.76722 4011 ft 0 kts 283°
2026-05-07 22:12 4.45278 -75.76706 4011 ft 2 kts 238°
2026-05-07 22:12 4.45289 -75.76695 4011 ft 0 kts 198°
2026-05-07 22:12 4.45297 -75.76694 4011 ft 1 kts 193°
2026-05-07 22:16 4.45291 -75.76695 4012 ft 2 kts 193°
2026-05-07 22:17 4.45255 -75.76703 4012 ft 7 kts 183°
2026-05-07 22:17 4.45208 -75.76661 4012 ft 10 kts 125°
2026-05-07 22:17 4.45126 -75.76643 4012 ft 14 kts 195°
2026-05-07 22:17 4.45014 -75.76673 4013 ft 17 kts 194°
2026-05-07 22:18 4.44886 -75.76704 4013 ft 19 kts 193°
2026-05-07 22:18 4.44562 -75.76782 4014 ft 23 kts 193°
2026-05-07 22:18 4.44391 -75.76821 4015 ft 22 kts 193°
2026-05-07 22:19 4.44248 -75.76857 4015 ft 14 kts 193°
2026-05-07 22:19 4.44168 -75.76860 4016 ft 6 kts 169°
2026-05-07 22:19 4.44150 -75.76884 4016 ft 5 kts 321°
2026-05-07 22:19 4.44187 -75.76874 4016 ft 3 kts 18°
2026-05-07 22:20 4.44190 -75.76873 4016 ft 0 kts 13°
2026-05-07 22:20 4.44198 -75.76872 4016 ft 10 kts 13°
2026-05-07 22:20 4.44563 -75.76784 4015 ft 96 kts 13°
2026-05-07 22:20 4.45477 -75.76563 4040 ft 164 kts 13°
2026-05-07 22:21 4.46731 -75.76276 4782 ft 170 kts 13°
2026-05-07 22:21 4.47986 -75.75990 5693 ft 173 kts 12°
2026-05-07 22:21 4.49225 -75.75745 6283 ft 170 kts 11°
2026-05-07 22:21 4.50509 -75.75504 6563 ft 184 kts 11°
2026-05-07 22:22 4.51861 -75.75245 6843 ft 199 kts 11°
2026-05-07 22:22 4.53430 -75.74950 7120 ft 217 kts
2026-05-07 22:22 4.55071 -75.75179 7333 ft 238 kts 341°
2026-05-07 22:22 4.56793 -75.75845 7687 ft 256 kts 338°
2026-05-07 22:23 4.58693 -75.76615 8051 ft 274 kts 339°
2026-05-07 22:23 4.60690 -75.77383 8502 ft 287 kts 340°
2026-05-07 22:23 4.62681 -75.78115 9137 ft 292 kts 341°
2026-05-07 22:23 4.64672 -75.78830 9807 ft 295 kts 341°
2026-05-07 22:24 4.66664 -75.79538 10456 ft 298 kts 342°
2026-05-07 22:24 4.68725 -75.80264 10831 ft 312 kts 342°
2026-05-07 22:24 4.70968 -75.81052 11346 ft 321 kts 342°
2026-05-07 22:24 4.73252 -75.81856 12022 ft 324 kts 342°
2026-05-07 22:25 4.75517 -75.82654 12674 ft 327 kts 343°
2026-05-07 22:25 4.77788 -75.83170 13278 ft 327 kts 359°
2026-05-07 22:25 4.80189 -75.82929 13899 ft 326 kts 17°
2026-05-07 22:25 4.82444 -75.82184 14506 ft 328 kts 21°
2026-05-07 22:26 4.84735 -75.81361 15084 ft 332 kts 21°
2026-05-07 22:26 4.87035 -75.80536 15644 ft 335 kts 21°
2026-05-07 22:26 4.89358 -75.79712 16205 ft 337 kts 21°
2026-05-07 22:26 4.91737 -75.78872 16746 ft 340 kts 21°
2026-05-07 22:27 4.94100 -75.78041 17083 ft 343 kts 21°
2026-05-07 22:27 4.96589 -75.77168 17160 ft 344 kts 21°
2026-05-07 22:27 4.99054 -75.76306 17195 ft 343 kts 21°
2026-05-07 22:27 5.01501 -75.75450 17174 ft 343 kts 21°
2026-05-07 22:28 5.03876 -75.74621 17176 ft 342 kts 21°
2026-05-07 22:28 5.06266 -75.73784 17187 ft 342 kts 21°
2026-05-07 22:28 5.08633 -75.72957 17199 ft 342 kts 21°
2026-05-07 22:28 5.10970 -75.72142 17202 ft 341 kts 21°
2026-05-07 22:29 5.13226 -75.71352 17198 ft 342 kts 21°
2026-05-07 22:29 5.15602 -75.70523 17196 ft 342 kts 21°
2026-05-07 22:29 5.17928 -75.69713 17193 ft 342 kts 21°
2026-05-07 22:29 5.20432 -75.68842 17199 ft 342 kts 21°
2026-05-07 22:30 5.22884 -75.67987 17201 ft 343 kts 21°
2026-05-07 22:30 5.25236 -75.67167 17197 ft 343 kts 21°
2026-05-07 22:30 5.27541 -75.66363 17208 ft 343 kts 21°
2026-05-07 22:30 5.29900 -75.65542 17213 ft 343 kts 21°
2026-05-07 22:31 5.32251 -75.64723 17223 ft 343 kts 21°
2026-05-07 22:31 5.34599 -75.63904 17232 ft 343 kts 21°
2026-05-07 22:31 5.36949 -75.63085 17234 ft 343 kts 21°
2026-05-07 22:31 5.39284 -75.62243 17243 ft 342 kts 23°
2026-05-07 22:32 5.41608 -75.61229 17251 ft 342 kts 27°
2026-05-07 22:32 5.43829 -75.60090 17249 ft 341 kts 29°
2026-05-07 22:32 5.46096 -75.58888 17248 ft 342 kts 30°
2026-05-07 22:32 5.48325 -75.57705 17198 ft 342 kts 29°
2026-05-07 22:33 5.50549 -75.56524 16922 ft 340 kts 30°
2026-05-07 22:33 5.52767 -75.55348 16551 ft 338 kts 30°
2026-05-07 22:33 5.54960 -75.54185 16137 ft 337 kts 29°
2026-05-07 22:33 5.57192 -75.53001 15697 ft 335 kts 30°
2026-05-07 22:34 5.59477 -75.51790 15241 ft 334 kts 29°
2026-05-07 22:34 5.61700 -75.50612 14785 ft 334 kts 29°
2026-05-07 22:34 5.63862 -75.49467 14344 ft 333 kts 30°
2026-05-07 22:34 5.65965 -75.48352 13920 ft 331 kts 30°
2026-05-07 22:35 5.68173 -75.47182 13580 ft 324 kts 30°
2026-05-07 22:35 5.70211 -75.46102 13434 ft 312 kts 30°
2026-05-07 22:35 5.72165 -75.45066 13329 ft 300 kts 30°
2026-05-07 22:35 5.73982 -75.44102 13221 ft 288 kts 30°
2026-05-07 22:36 5.75776 -75.43151 13111 ft 277 kts 30°
2026-05-07 22:36 5.77596 -75.42377 12983 ft 268 kts 18°
2026-05-07 22:36 5.79500 -75.42065 12950 ft 261 kts
2026-05-07 22:36 5.81376 -75.42030 12672 ft 264 kts
2026-05-07 22:37 5.83228 -75.42060 12341 ft 263 kts
2026-05-07 22:37 5.85111 -75.42094 12173 ft 253 kts
2026-05-07 22:37 5.86943 -75.42119 12032 ft 243 kts
2026-05-07 22:37 5.88685 -75.42135 11740 ft 241 kts
2026-05-07 22:38 5.90468 -75.42147 11408 ft 240 kts
2026-05-07 22:38 5.92233 -75.42158 11074 ft 238 kts
2026-05-07 22:38 5.93949 -75.42169 10756 ft 237 kts
2026-05-07 22:38 5.95589 -75.42180 10533 ft 231 kts
2026-05-07 22:39 5.97290 -75.42191 10234 ft 224 kts
2026-05-07 22:39 5.98920 -75.42201 9877 ft 219 kts
2026-05-07 22:39 6.00469 -75.42212 9564 ft 212 kts
2026-05-07 22:39 6.01934 -75.42222 9283 ft 199 kts
2026-05-07 22:40 6.03348 -75.42231 9034 ft 184 kts
2026-05-07 22:40 6.04600 -75.42240 8789 ft 173 kts
2026-05-07 22:40 6.05780 -75.42246 8589 ft 163 kts
2026-05-07 22:40 6.06896 -75.42254 8387 ft 155 kts
2026-05-07 22:41 6.08059 -75.42261 8192 ft 154 kts
2026-05-07 22:41 6.09172 -75.42266 8016 ft 154 kts
2026-05-07 22:41 6.10253 -75.42273 7821 ft 152 kts
2026-05-07 22:41 6.11330 -75.42281 7633 ft 152 kts
2026-05-07 22:42 6.12421 -75.42287 7439 ft 152 kts
2026-05-07 22:42 6.13553 -75.42295 7228 ft 152 kts
2026-05-07 22:42 6.14700 -75.42302 7031 ft 151 kts
2026-05-07 22:42 6.15754 -75.42309 6963 ft 134 kts 359°
2026-05-07 22:43 6.16520 -75.42312 6970 ft 83 kts
2026-05-07 22:43 6.16926 -75.42332 6977 ft 34 kts 344°
2026-05-07 22:43 6.17079 -75.42397 6988 ft 19 kts 329°
2026-05-07 22:43 6.17147 -75.42438 6992 ft 8 kts 329°
2026-05-07 22:44 6.17188 -75.42481 6992 ft 9 kts 287°
2026-05-07 22:44 6.17187 -75.42548 6993 ft 9 kts 268°
2026-05-07 22:44 6.17171 -75.42604 6995 ft 8 kts 220°
2026-05-07 22:44 6.17120 -75.42615 6998 ft 5 kts 180°
2026-05-07 22:45 6.17073 -75.42623 7001 ft 7 kts 203°
2026-05-07 22:45 6.17031 -75.42650 7003 ft 6 kts 215°
2026-05-07 22:45 6.17010 -75.42680 7003 ft 5 kts 274°
2026-05-07 22:45 6.17023 -75.42703 7004 ft 2 kts 303°
2026-05-07 22:46 6.17033 -75.42718 7005 ft 1 kts 303°
2026-05-07 22:46 6.17035 -75.42721 7005 ft 0 kts 303°